Location: Newark
(47.3000°N, 8.0500°E)
Time: 15:31:31
(UTC+00:00)

OTV 5 (USA 277) - Pass Details

Date: 03 September 2019
Orbit: 295 x 339 km, 54.5° (Epoch: 08 September)

Event Time Altitude Azimuth Distance (km) Brightness Sun altitude
Rises 20:20:21 0° 304° (NW) 1,999 ? -21.5°
Reaches altitude 10° 20:22:31 10° 320° (NW) 1,169 ? -21.8°
Enters shadow 20:23:51 20° 346° (NNW) 780 ? -21.9°
